FW0827 Weather Reports


Display with metric or nautical units.
time (UTC)temp
F
wind
direction
speed
MPH
gust
MPH
rain 1hr
in
rain 24hr
in
rain mn
in
humidity
%
barometer
mb
20260906050204 62 331 0.0 0.0 0.00 0.00 0.00 99 1013.1
20260906045705 62 330 0.0 1.0 0.00 0.00 0.00 99 1013.2
20260906045205 62 330 0.0 1.0 0.00 0.00 0.00 99 1013.2
20260906044704 62 330 1.0 1.0 0.00 0.00 0.00 99 1013.2
20260906044206 62 330 1.0 1.0 0.00 0.00 0.00 99 1013.3
20260906043704 62 330 0.0 0.0 0.00 0.00 0.00 99 1013.3
20260906043204 62 330 0.0 0.0 0.00 0.00 0.00 99 1013.3
20260906042205 62 330 1.0 1.0 0.00 0.00 0.00 99 1013.3
20260906041706 61 330 0.0 0.0 0.00 0.00 0.00 99 1013.5
20260906041205 61 330 0.0 0.0 0.00 0.00 0.00 99 1013.5
20260906040204 61 330 0.0 0.0 0.00 0.00 0.00 99 1013.6
20260906035704 61 330 0.0 0.0 0.00 0.02 0.00 99 1013.3
20260906035204 61 330 0.0 0.0 0.00 0.02 0.00 99 1013.3
20260906034704 61 330 0.0 0.0 0.00 0.02 0.00 99 1013.2
20260906034204 62 330 0.0 0.0 0.00 0.02 0.00 99 1013.3
20260906033704 62 330 0.0 0.0 0.00 0.02 0.00 99 1013.2
20260906033204 62 330 0.0 0.0 0.00 0.03 0.00 99 1013.2
20260906032705 62 330 0.0 0.0 0.00 0.03 0.00 99 1013.3
20260906032204 62 330 0.0 1.0 0.00 0.03 0.00 99 1013.3
20260906031704 61 355 0.0 3.0 0.00 0.03 0.00 99 1013.2
20260906030704 62 305 0.0 0.0 0.00 0.04 0.00 99 1013.0
20260906030205 62 278 0.0 0.0 0.00 0.04 0.00 99 1013.2
20260906025704 62 278 0.0 0.0 0.00 0.04 0.00 99 1013.0
20260906025207 62 278 0.0 0.0 0.00 0.04 0.00 99 1013.0
20260906024704 62 277 0.0 0.0 0.00 0.04 0.00 99 1013.0
20260906024204 63 277 0.0 0.0 0.00 0.04 0.00 99 1013.0
20260906023704 63 277 0.0 0.0 0.00 0.04 0.00 99 1013.0
20260906023205 63 277 0.0 0.0 0.00 0.04 0.00 99 1013.0
20260906022705 63 277 0.0 0.0 0.00 0.04 0.00 99 1013.1
20260906022204 64 277 0.0 0.0 0.00 0.04 0.00 98 1013.0
20260906021705 64 277 0.0 0.0 0.00 0.04 0.00 98 1013.0
20260906020705 65 276 0.0 1.0 0.00 0.04 0.00 98 1013.1
20260906020205 65 276 1.0 1.0 0.00 0.04 0.00 97 1013.2
20260906015706 65 276 1.0 1.0 0.00 0.04 0.00 96 1012.9
20260906015205 65 319 0.0 0.0 0.00 0.04 0.00 95 1012.9
20260906014704 65 319 0.0 0.0 0.00 0.04 0.00 92 1013.0
20260906014204 64 320 0.0 0.0 0.00 0.04 0.00 91 1012.6
20260906013704 64 320 0.0 5.0 0.00 0.04 0.00 93 1012.9
20260906013206 63 323 1.0 5.0 0.00 0.04 0.00 96 1012.8
20260906012704 63 322 0.0 0.0 0.00 0.04 0.00 97 1012.6
20260906012206 64 320 0.0 0.0 0.00 0.04 0.00 96 1012.7
20260906011705 63 319 0.0 0.0 0.00 0.04 0.00 96 1012.7
20260906011204 63 319 0.0 0.0 0.00 0.04 0.00 97 1012.7
20260906010706 64 320 0.0 0.0 0.00 0.04 0.00 97 1012.7
20260906010204 64 320 0.0 0.0 0.00 0.04 0.00 96 1012.4
20260906005705 64 319 0.0 1.0 0.00 0.04 0.00 96 1012.6
20260906005205 64 319 1.0 1.0 0.00 0.04 0.00 96 1012.4
20260906004705 64 319 0.0 0.0 0.00 0.04 0.00 96 1012.2
20260906004206 64 319 0.0 0.0 0.00 0.04 0.00 95 1012.4
20260906003705 64 319 0.0 0.0 0.00 0.04 0.00 95 1012.2
20260906003204 64 319 0.0 0.0 0.00 0.04 0.00 94 1012.1
20260906002705 65 319 0.0 0.0 0.00 0.04 0.00 93 1012.1
20260906002204 65 319 0.0 0.0 0.00 0.04 0.00 92 1012.0
20260906001204 66 319 0.0 0.0 0.00 0.04 0.00 91 1012.1
20260906000706 66 319 0.0 0.0 0.00 0.04 0.00 90 1011.9
20260906000205 67 319 0.0 0.0 0.00 0.04 0.00 89 1011.8
20260905235206 68 319 0.0 0.0 0.00 0.04 0.00 85 1011.6
20260905234704 69 319 0.0 0.0 0.00 0.04 0.00 84 1011.8
20260905234205 69 319 0.0 1.0 0.00 0.04 0.00 84 1011.8
20260905233203 69 325 0.0 1.0 0.00 0.04 0.00 86 1011.6
20260905232704 70 330 0.0 0.0 0.00 0.04 0.00 84 1011.8
20260905232204 70 330 0.0 1.0 0.00 0.04 0.00 82 1011.5
20260905231704 71 330 1.0 1.0 0.00 0.04 0.00 80 1011.4
20260905231204 72 330 0.0 1.0 0.00 0.04 0.00 76 1011.5
20260905230703 72 330 0.0 1.0 0.00 0.04 0.00 75 1011.5
20260905230204 72 330 0.0 0.0 0.00 0.04 0.00 75 1011.6
20260905225706 72 330 0.0 1.0 0.00 0.04 0.00 74 1011.3
20260905225204 73 330 0.0 1.0 0.00 0.04 0.00 73 1011.6
20260905224206 73 347 2.0 3.0 0.00 0.04 0.00 73 1011.4
20260905223205 73 336 2.0 5.0 0.00 0.04 0.00 72 1011.3
20260905222705 73 356 1.0 5.0 0.00 0.04 0.00 71 1011.3
20260905222205 74 330 0.0 5.0 0.00 0.04 0.00 70 1011.5
20260905221704 74 322 0.0 1.0 0.00 0.04 0.00 70 1011.4
20260905221204 74 320 0.0 3.0 0.00 0.04 0.00 68 1011.2
20260905220704 75 329 1.0 8.0 0.00 0.04 0.00 67 1011.3
20260905215203 76 325 5.0 9.0 0.00 0.04 0.00 65 1011.1
20260905214704 76 322 5.0 9.0 0.00 0.04 0.00 66 1011.2
20260905214204 76 321 1.0 5.0 0.00 0.04 0.00 68 1011.1
20260905213704 76 338 1.0 8.0 0.00 0.04 0.00 66 1011.1
20260905213205 76 344 1.0 5.0 0.00 0.04 0.00 68 1011.2
20260905212206 76 345 2.0 9.0 0.00 0.04 0.00 65 1011.0
20260905211204 76 0 5.0 13.0 0.00 0.04 0.00 63 1011.2
20260905210704 76 290 3.0 8.0 0.00 0.04 0.00 64 1011.2
20260905205704 76 15 5.0 12.0 0.00 0.04 0.00 65 1011.0
20260905205205 77 24 6.0 12.0 0.00 0.04 0.00 65 1011.1
20260905204704 76 12 4.0 13.0 0.00 0.04 0.00 66 1011.1
20260905204205 76 4 4.0 12.0 0.00 0.04 0.00 65 1011.1
20260905203704 76 344 2.0 8.0 0.00 0.04 0.00 65 1011.1
20260905202704 76 331 2.0 14.0 0.00 0.04 0.00 69 1011.2
20260905202204 76 2 7.0 14.0 0.00 0.04 0.00 66 1011.2
20260905201704 76 349 9.0 13.0 0.00 0.04 0.00 70 1011.4
20260905201204 76 0 3.0 7.0 0.00 0.04 0.00 71 1011.4
20260905200704 76 4 5.0 7.0 0.00 0.04 0.00 69 1011.3
20260905200204 76 14 2.0 8.0 0.00 0.04 0.00 71 1011.2
20260905195704 76 2 2.0 12.0 0.00 0.04 0.00 70 1011.3
20260905195204 75 16 3.0 8.0 0.00 0.04 0.00 70 1011.3
20260905194205 76 33 2.0 16.0 0.00 0.04 0.00 69 1011.4
20260905193205 78 316 3.0 9.0 0.00 0.04 0.00 64 1011.3
20260905192704 78 344 2.0 12.0 0.00 0.04 0.00 66 1011.2
20260905191704 78 347 4.0 12.0 0.00 0.04 0.00 65 1011.3
20260905191204 78 348 3.0 9.0 0.00 0.04 0.00 64 1011.4
20260905190704 77 316 2.0 7.0 0.00 0.04 0.00 68 1011.5
20260905190204 76 11 2.0 8.0 0.00 0.04 0.00 71 1011.6
20260905184704 80 346 5.0 13.0 0.00 0.04 0.00 64 1011.6
20260905183704 79 292 1.0 5.0 0.00 0.04 0.00 66 1011.6
20260905183204 77 312 1.0 7.0 0.00 0.04 0.00 68 1011.6
20260905182705 77 11 3.0 14.0 0.00 0.04 0.00 68 1011.7
20260905182205 77 349 5.0 14.0 0.00 0.04 0.00 65 1011.5
20260905181706 77 77 6.0 14.0 0.00 0.04 0.00 65 1011.7
20260905181204 79 338 2.0 7.0 0.00 0.04 0.00 65 1011.6
20260905175205 79 351 1.0 7.0 0.00 0.04 0.00 68 1011.6
20260905174204 78 22 6.0 12.0 0.00 0.04 0.00 68 1011.7
20260905173704 77 357 5.0 8.0 0.00 0.04 0.00 69 1011.8
20260905173204 76 335 2.0 12.0 0.00 0.04 0.00 67 1012.0
20260905172704 76 337 1.0 9.0 0.00 0.04 0.00 69 1011.9
20260905172204 76 18 6.0 12.0 0.00 0.04 0.00 68 1012.0
20260905171704 76 342 5.0 9.0 0.00 0.04 0.00 68 1011.8
20260905171205 76 335 3.0 13.0 0.00 0.04 0.00 68 1012.1
20260905170704 77 351 5.0 13.0 0.00 0.04 0.00 67 1012.1
20260905170204 78 9 3.0 8.0 0.00 0.04 0.00 67 1012.0
20260905165706 77 315 2.0 13.0 0.00 0.04 0.00 70 1012.0
20260905164704 77 345 3.0 8.0 0.00 0.04 0.00 70 1012.1
20260905164205 76 335 4.0 13.0 0.00 0.04 0.00 71 1012.2
20260905163704 77 17 7.0 16.0 0.00 0.04 0.00 68 1012.3
20260905163204 77 10 3.0 13.0 0.00 0.04 0.00 69 1012.4
20260905162704 76 350 4.0 13.0 0.00 0.04 0.00 68 1012.5
20260905162205 76 30 2.0 9.0 0.00 0.04 0.00 70 1012.3
20260905161704 77 28 6.0 13.0 0.00 0.04 0.00 71 1012.5
20260905161205 77 30 4.0 13.0 0.00 0.04 0.00 70 1012.6
20260905160705 76 315 5.0 14.0 0.00 0.04 0.00 69 1012.6
20260905160205 76 348 5.0 14.0 0.00 0.04 0.00 70 1012.7
20260905155705 76 332 2.0 9.0 0.00 0.04 0.00 74 1012.7
20260905155204 75 321 5.0 14.0 0.00 0.04 0.00 74 1012.6
20260905154704 76 8 8.0 14.0 0.00 0.04 0.00 74 1012.6
20260905154205 76 40 5.0 9.0 0.00 0.04 0.00 73 1012.7
20260905153705 76 354 5.0 9.0 0.00 0.04 0.00 73 1012.7
20260905153206 76 326 6.0 16.0 0.00 0.04 0.00 73 1012.5
20260905152205 75 353 3.0 13.0 0.00 0.04 0.00 77 1012.8
20260905151705 75 350 4.0 12.0 0.00 0.04 0.00 75 1012.7
20260905151204 74 2 5.0 14.0 0.00 0.04 0.00 75 1012.6
20260905150706 74 342 3.0 13.0 0.00 0.04 0.00 77 1012.6
20260905150204 74 343 8.0 13.0 0.00 0.04 0.00 78 1012.6
20260905145704 75 338 3.0 13.0 0.00 0.04 0.00 79 1012.2
20260905145204 74 342 5.0 9.0 0.00 0.04 0.00 79 1012.3
20260905144704 74 20 6.0 12.0 0.00 0.04 0.00 80 1012.4
20260905142704 73 354 2.0 12.0 0.00 0.04 0.00 82 1012.1
20260905142204 72 43 6.0 17.0 0.00 0.04 0.00 82 1012.6
20260905141703 72 358 6.0 17.0 0.00 0.04 0.00 82 1012.3
20260905141204 72 313 5.0 13.0 0.00 0.04 0.00 83 1012.2
20260905140205 72 334 7.0 20.0 0.00 0.04 0.00 82 1012.4
20260905135704 72 337 8.0 17.0 0.00 0.04 0.00 83 1012.3
20260905134206 72 347 3.0 9.0 0.00 0.04 0.00 85 1012.5
20260905133705 72 28 4.0 12.0 0.00 0.04 0.00 85 1012.4
20260905133204 72 3 3.0 7.0 0.00 0.04 0.00 86 1012.3
20260905132705 72 310 2.0 8.0 0.00 0.04 0.00 86 1012.3
20260905132204 72 320 1.0 5.0 0.00 0.04 0.00 86 1012.3
20260905131204 70 346 1.0 7.0 0.00 0.04 0.00 88 1012.1
20260905130704 70 320 2.0 7.0 0.00 0.04 0.00 87 1012.1
20260905130204 70 353 1.0 3.0 0.00 0.04 0.00 88 1012.3
20260905125704 70 331 2.0 7.0 0.00 0.04 0.00 88 1012.2
20260905124705 69 315 1.0 5.0 0.00 0.04 0.00 90 1012.2
20260905124206 69 314 0.0 1.0 0.00 0.04 0.00 91 1012.2
20260905123204 69 318 0.0 0.0 0.00 0.04 0.00 93 1012.1
20260905122704 69 318 0.0 0.0 0.00 0.04 0.00 94 1012.2
20260905122204 69 318 0.0 0.0 0.00 0.04 0.00 94 1012.4
20260905121204 70 319 0.0 0.0 0.00 0.04 0.00 93 1012.2
20260905120706 69 319 0.0 0.0 0.00 0.04 0.00 91 1012.3
20260905120203 69 328 0.0 1.0 0.00 0.04 0.00 90 1012.2
20260905114205 67 344 1.0 5.0 0.00 0.04 0.00 97 1012.2
20260905113704 67 329 0.0 1.0 0.00 0.04 0.00 98 1012.3
20260905113205 68 323 0.0 0.0 0.00 0.04 0.00 99 1012.1
20260905112704 68 324 0.0 0.0 0.00 0.04 0.00 99 1012.2
20260905112204 68 324 0.0 0.0 0.00 0.04 0.00 99 1012.1
20260905111704 68 324 0.0 0.0 0.00 0.04 0.00 99 1011.9
20260905111204 68 324 0.0 0.0 0.00 0.04 0.00 98 1012.0
20260905110204 67 324 0.0 0.0 0.00 0.04 0.00 98 1012.0
20260905105705 68 323 0.0 0.0 0.00 0.04 0.00 98 1012.0
20260905105204 68 323 0.0 0.0 0.00 0.04 0.00 97 1011.8
20260905104704 68 324 0.0 0.0 0.00 0.04 0.00 97 1011.5
20260905104205 68 324 0.0 1.0 0.00 0.04 0.00 97 1011.6
20260905103705 68 324 0.0 1.0 0.00 0.04 0.00 97 1011.4
20260905103204 69 335 0.0 1.0 0.00 0.04 0.00 97 1011.2
20260905102705 69 335 0.0 0.0 0.00 0.04 0.00 96 1011.3
20260905101704 69 335 0.0 0.0 0.00 0.04 0.00 94 1011.3
20260905101204 69 335 0.0 3.0 0.00 0.04 0.00 92 1011.3
20260905100704 69 329 0.0 1.0 0.00 0.04 0.00 91 1011.2
20260905100204 69 324 0.0 0.0 0.00 0.04 0.00 91 1011.3
20260905095705 69 324 0.0 0.0 0.00 0.04 0.00 91 1011.4
20260905095206 69 324 0.0 1.0 0.00 0.04 0.00 91 1011.3
20260905094706 69 324 0.0 3.0 0.00 0.04 0.00 90 1011.2
20260905094205 69 323 1.0 3.0 0.00 0.04 0.00 90 1011.3
20260905093704 69 328 1.0 5.0 0.00 0.04 0.00 90 1011.3
20260905093204 69 352 2.0 5.0 0.00 0.04 0.00 91 1011.3
20260905092705 69 329 1.0 5.0 0.00 0.04 0.00 92 1011.2
20260905092205 69 331 2.0 5.0 0.00 0.04 0.00 93 1011.2
20260905091705 69 330 1.0 5.0 0.00 0.04 0.00 94 1011.1
20260905091204 69 337 1.0 5.0 0.00 0.04 0.00 95 1011.1
20260905090704 68 345 2.0 5.0 0.00 0.04 0.00 98 1011.1
20260905090204 68 348 2.0 5.0 0.00 0.04 0.00 99 1011.3
20260905085704 67 1 2.0 7.0 0.00 0.04 0.00 99 1011.3
20260905085204 67 5 3.0 7.0 0.00 0.04 0.00 99 1011.2
20260905084705 67 350 0.0 5.0 0.00 0.04 0.00 99 1011.2
20260905084204 67 340 1.0 7.0 0.00 0.04 0.00 99 1011.0
20260905083704 67 348 3.0 7.0 0.00 0.04 0.00 99 1011.0
20260905083205 68 348 2.0 5.0 0.00 0.04 0.00 99 1011.2
20260905082204 68 302 0.0 0.0 0.00 0.04 0.00 99 1011.1
20260905081706 68 298 0.0 0.0 0.00 0.04 0.00 99 1011.1
20260905081205 68 298 0.0 0.0 0.00 0.04 0.00 99 1011.1
20260905080204 68 294 0.0 0.0 0.00 0.04 0.00 99 1011.0
20260905075704 68 357 0.0 0.0 0.00 0.04 0.00 99 1011.2
20260905075204 68 357 0.0 0.0 0.00 0.04 0.00 99 1011.2
20260905074704 68 357 0.0 0.0 0.00 0.04 0.00 99 1011.1
20260905074204 67 357 0.0 0.0 0.00 0.04 0.00 99 1011.3
20260905073704 67 357 0.0 0.0 0.00 0.04 0.00 99 1011.3
20260905073204 67 357 0.0 0.0 0.00 0.04 0.00 99 1011.3
20260905072705 67 357 0.0 0.0 0.00 0.04 0.00 99 1011.2
20260905072204 67 357 0.0 0.0 0.00 0.04 0.00 99 1011.2
20260905071704 67 357 0.0 0.0 0.00 0.04 0.00 99 1011.2
20260905071205 67 357 0.0 0.0 0.00 0.04 0.00 99 1011.2
20260905070704 68 357 0.0 0.0 0.00 0.04 0.00 99 1011.3
20260905070204 68 357 0.0 0.0 0.00 0.04 0.00 99 1011.3
20260905065705 68 357 0.0 0.0 0.00 0.04 0.00 99 1011.3
20260905065204 68 357 0.0 0.0 0.00 0.04 0.00 99 1011.4
20260905064703 67 357 0.0 0.0 0.00 0.04 0.00 99 1011.4
20260905064204 68 357 0.0 0.0 0.00 0.04 0.00 99 1011.5
20260905063704 68 357 0.0 0.0 0.00 0.04 0.00 99 1011.4
20260905063204 68 357 0.0 0.0 0.00 0.04 0.00 99 1011.3
20260905062704 69 357 0.0 0.0 0.00 0.04 0.00 99 1011.5
20260905061205 69 357 0.0 1.0 0.00 0.04 0.00 99 1011.5
20260905060704 69 357 0.0 0.0 0.00 0.04 0.00 99 1011.5
20260905055705 69 357 0.0 0.0 0.00 0.04 0.00 99 1011.3
20260905055204 69 357 0.0 0.0 0.00 0.04 0.00 99 1011.7
20260905054704 70 357 0.0 0.0 0.00 0.04 0.00 99 1011.6
20260905054204 70 357 0.0 0.0 0.00 0.04 0.00 99 1011.6
20260905053705 70 357 0.0 0.0 0.00 0.04 0.00 99 1011.7
20260905053206 70 357 0.0 1.0 0.00 0.04 0.00 99 1011.6
20260905052704 70 357 0.0 1.0 0.00 0.04 0.00 99 1011.7
20260905052204 70 357 0.0 0.0 0.00 0.04 0.00 99 1011.8
20260905051704 70 357 0.0 0.0 0.00 0.04 0.00 99 1011.9
20260905051205 71 357 0.0 0.0 0.00 0.04 0.00 99 1011.8
20260905050704 71 357 0.0 0.0 0.00 0.04 0.00 99 1011.9